sat.trackr.live / text

‹ back to catalog

STARLINK-37840

NORAD 69965 · 2026-157Y

PAYLOAD ACTIVE UNKNOWN

§ Identity

Operator
Country
US
Launch date
2026-07-09
Launch site
AFETR
Launch vehicle
Mass (kg)
RCS (m²)

Purposes: comms

External: N2YO · Heavens-Above · Gunter

§ Orbital elements

Epoch: 2026-09-19T17:12:26.318592Z

Period
93.85 min
Inclination
53.1577°
Eccentricity
0.0001288
Mean motion
15.34412568 rev/d
Perigee alt
461.8 km
Apogee alt
463.5 km
Semi-major
6,840.8 km
B*
5.8191e-4
RAAN
337.3185°
Arg perigee
86.1374°
Mean anomaly
273.9776°
Rev number
1,125

§ Raw data

STARLINK-378401 69965U 26157Y   26262.71697128  .00019343  00000+0  58191-3 0  99912 69965  53.1577 337.3185 0001288  86.1374 273.9776 15.34412568 11252

JSON: /api/v1/satellites/69965 · /tle

For live sub-satellite position, see the globe view (requires WebGL).

§ Visibility from observer

Set your observer location to see the next 7 days of passes ≥ 10°. The values pass through the URL so the page stays shareable.

No JS? Fill the form by hand. The geolocation button needs JavaScript.